South Bend, IN

10:08 AM EDT on May 24, 2017 (GMT -0400)
South Bend Regional

Weather History for KSBN - February, 2012

Change the Weather History Date:

Friday, February 17, 2012

  Actual Average Record
Temperature  
Mean Temperature 37 °F 28 °F  
Max Temperature 47 °F 36 °F 64 °F (2017)
Min Temperature 26 °F 21 °F -8 °F (1903)
Degree Days  
Heating Degree Days 28 37  
Month to date heating degree days 573 658  
Since 1 July heating degree days 3710 4306  
Cooling Degree Days 0 0  
Month to date cooling degree days 0 0  
Year to date cooling degree days 0 0  
Moisture  
Dew Point 26 °F    
Average Humidity 61    
Maximum Humidity 81    
Minimum Humidity 40    
Precipitation  
Precipitation 0.00 in 0.07 in 0.60 in (2008)
Month to date precipitation 0.59 1.11  
Year to date precipitation 3.56 3.40  
Snow  
Snow 0.00 in 0.60 in 4.40 in (2014)
Month to date snowfall 5.8 9.9  
Since 1 July snowfall 46.5 53.0  
Snow Depth 0.00 in    
Sea Level Pressure  
Sea Level Pressure 30.12 in    
Wind  
Wind Speed 9 mph (SW)    
Max Wind Speed 18 mph    
Max Gust Speed 28 mph    
Visibility 10 miles    
Events      
T = Trace of Precipitation, MM = Missing Value Source: NWS Daily Summary

Daily Weather History Graph

Daily Weather History Graph

Search for Another Location

Airport or City:

Trip Planner

Search our weather history database for the weather conditions in past years. The results will help you decide how hot, cold, wet, or windy it might be!

Date:

Astronomy

Feb. 17, 2012 Rise Set
Actual Time 7:38 AM EST 6:20 PM EST
Civil Twilight 7:10 AM EST 6:48 PM EST
Nautical Twilight 6:37 AM EST 7:21 PM EST
Astronomical Twilight 6:05 AM EST 7:53 PM EST
Moon 4:32 AM EST (2/17) 2:10 PM EST (2/17)
Length of Visible Light 11h 38m
Length of Day
10h 41m
Waning Crescent, 19% of the Moon is Illuminated
Feb 17
Waning Crescent
Feb 21
New
Feb 29
First Quarter
Mar 8
Full
Mar 14
Last Quarter

Hourly Weather History & Observations

Time (EST) Temp. Windchill Dew Point Humidity Pressure Visibility Wind Dir Wind Speed Gust Speed Precip Events Conditions
12:54 AM 35.1 °F 28.6 °F 25.0 °F 67% 30.11 in 10.0 mi SW 8.1 mph - N/A   Mostly Cloudy
1:54 AM 34.0 °F 26.6 °F 25.0 °F 70% 30.12 in 10.0 mi West 9.2 mph - N/A   Clear
2:54 AM 32.0 °F 24.8 °F 25.0 °F 75% 30.15 in 10.0 mi WSW 8.1 mph - N/A   Clear
3:54 AM 30.0 °F 24.1 °F 24.1 °F 79% 30.15 in 10.0 mi SW 5.8 mph - N/A   Clear
4:54 AM 28.9 °F 23.9 °F 23.0 °F 78% 30.16 in 10.0 mi SW 4.6 mph - N/A   Clear
5:54 AM 28.0 °F 21.7 °F 21.9 °F 78% 30.17 in 10.0 mi SW 5.8 mph - N/A   Clear
6:54 AM 27.0 °F 21.6 °F 21.9 °F 81% 30.18 in 10.0 mi SW 4.6 mph - N/A   Clear
7:54 AM 27.0 °F 21.6 °F 21.9 °F 81% 30.18 in 9.0 mi SW 4.6 mph - N/A   Clear
8:54 AM 30.0 °F 23.2 °F 25.0 °F 82% 30.19 in 9.0 mi SW 6.9 mph - N/A   Clear
9:54 AM 34.0 °F 28.8 °F 26.1 °F 73% 30.19 in 10.0 mi SW 5.8 mph - N/A   Clear
10:54 AM 39.0 °F 36.8 °F 26.1 °F 60% 30.19 in 10.0 mi SW 3.5 mph - N/A   Clear
11:54 AM 42.1 °F 36.1 °F 24.1 °F 49% 30.18 in 10.0 mi WSW 10.4 mph - N/A   Clear
12:54 PM 43.0 °F 37.2 °F 21.9 °F 43% 30.16 in 10.0 mi WSW 10.4 mph - 0.01 in   Scattered Clouds
1:54 PM 44.1 °F 38.1 °F 21.0 °F 40% 30.14 in 10.0 mi WSW 11.5 mph - N/A   Scattered Clouds
2:54 PM 45.0 °F 39.7 °F 23.0 °F 42% 30.11 in 10.0 mi SSW 10.4 mph - N/A   Mostly Cloudy
3:54 PM 46.9 °F - 25.0 °F 42% 30.08 in 10.0 mi South 12.7 mph 19.6 mph N/A   Clear
4:54 PM 46.9 °F - 27.0 °F 46% 30.07 in 10.0 mi South 13.8 mph - N/A   Overcast
5:54 PM 46.0 °F 41.4 °F 28.0 °F 50% 30.06 in 10.0 mi South 9.2 mph - N/A   Overcast
6:54 PM 45.0 °F 40.6 °F 28.9 °F 53% 30.06 in 10.0 mi South 8.1 mph - N/A   Overcast
7:54 PM 43.0 °F 37.2 °F 28.9 °F 58% 30.05 in 10.0 mi South 10.4 mph - N/A   Mostly Cloudy
8:54 PM 44.1 °F 37.1 °F 30.0 °F 58% 30.03 in 10.0 mi SSW 15.0 mph 23.0 mph N/A   Overcast
9:54 PM 44.1 °F 36.8 °F 30.9 °F 60% 30.02 in 10.0 mi SSW 16.1 mph - N/A   Mostly Cloudy
10:54 PM 42.1 °F 34.5 °F 32.0 °F 67% 30.02 in 10.0 mi SW 15.0 mph 23.0 mph N/A   Scattered Clouds
11:54 PM 39.9 °F 32.5 °F 32.0 °F 73% 30.02 in 10.0 mi WSW 12.7 mph 23.0 mph N/A   Scattered Clouds